Location: Newark
(44.4156°N, 12.1972°E)
Time: 18:47:43
(UTC+00:00)

STARLINK-1108 - Pass Details

Date: 31 January 2020
Orbit: 348 x 351 km, 53.0° (Epoch: 18 February)

Event Time Altitude Azimuth Distance (km) Brightness Sun altitude
Rises 18:39:19 0° 292° (WNW) 2,165 7.8 -25.3°
Reaches altitude 10° 18:41:41 10° 274° (W) 1,318 6.6 -25.7°
Enters shadow 18:43:03 17° 248° (WSW) 988 5.6 -26.0°
